TimeCST,TemperatureF,Dew PointF,Humidity,Sea Level PressureIn,VisibilityMPH,Wind Direction,Wind SpeedMPH,Gust SpeedMPH,PrecipitationIn,Events,Conditions,WindDirDegrees,DateUTC
12:53 AM,28.9,26.1,89,30.27,10.0,NNE,3.5,-,N/A,,Clear,30,2013-02-20 06:53:00
1:53 AM,30.0,25.0,82,30.27,10.0,Calm,Calm,-,N/A,,Clear,0,2013-02-20 07:53:00
2:53 AM,32.0,25.0,75,30.27,10.0,Calm,Calm,-,N/A,,Clear,0,2013-02-20 08:53:00
3:53 AM,30.9,21.9,69,30.27,10.0,NNE,8.1,-,N/A,,Clear,30,2013-02-20 09:53:00
4:53 AM,30.9,19.9,64,30.28,10.0,NE,5.8,-,N/A,,Clear,50,2013-02-20 10:53:00
5:53 AM,28.9,19.9,69,30.29,10.0,ENE,4.6,-,N/A,,Clear,60,2013-02-20 11:53:00
6:53 AM,30.0,21.0,69,30.29,10.0,NE,5.8,-,N/A,,Clear,40,2013-02-20 12:53:00
7:53 AM,32.0,19.9,61,30.33,10.0,NNE,9.2,-,N/A,,Clear,30,2013-02-20 13:53:00
8:53 AM,33.1,19.0,56,30.34,10.0,NNE,10.4,-,N/A,,Clear,30,2013-02-20 14:53:00
9:53 AM,35.1,18.0,50,30.34,10.0,NNE,8.1,-,N/A,,Clear,30,2013-02-20 15:53:00
10:53 AM,36.0,17.1,46,30.34,10.0,NNE,6.9,-,N/A,,Mostly Cloudy,30,2013-02-20 16:53:00
11:53 AM,36.0,18.0,48,30.28,10.0,ENE,10.4,-,N/A,,Overcast,60,2013-02-20 17:53:00
12:53 PM,36.0,19.9,52,30.31,10.0,Calm,Calm,-,0.00,,Overcast,0,2013-02-20 18:53:00
1:53 PM,37.0,21.0,52,30.30,10.0,NE,4.6,-,0.01,,Overcast,50,2013-02-20 19:53:00
2:53 PM,37.9,25.0,60,30.22,10.0,ENE,9.2,-,0.00,Rain,Light Rain,70,2013-02-20 20:53:00
3:53 PM,42.1,19.0,40,30.21,10.0,NE,12.7,-,0.00,,Partly Cloudy,40,2013-02-20 21:53:00
4:53 PM,39.9,17.1,40,30.20,10.0,ENE,4.6,-,N/A,,Scattered Clouds,60,2013-02-20 22:53:00
5:53 PM,39.0,19.9,46,30.21,10.0,NE,6.9,-,N/A,,Overcast,40,2013-02-20 23:53:00
6:53 PM,39.0,19.0,45,30.21,10.0,ENE,5.8,-,N/A,,Overcast,60,2013-02-21 00:53:00
7:53 PM,37.9,21.0,51,30.23,10.0,NE,6.9,-,N/A,,Overcast,50,2013-02-21 01:53:00
8:53 PM,37.0,21.0,52,30.22,10.0,ENE,5.8,-,N/A,,Scattered Clouds,70,2013-02-21 02:53:00
9:53 PM,37.9,21.0,51,30.21,10.0,ENE,5.8,-,N/A,,Overcast,60,2013-02-21 03:53:00
10:53 PM,37.9,21.9,53,30.20,10.0,ENE,3.5,-,N/A,,Overcast,70,2013-02-21 04:53:00
11:53 PM,37.9,21.0,51,30.19,10.0,NE,5.8,-,N/A,,Overcast,50,2013-02-21 05:53:00